| time (UTC) | temp F | wind direction | speed MPH | gust MPH | rain 1hr in | rain 24hr in | rain mn in | humidity % | barometer mb |
| 20260502170502 | 48 | 284 | 4.0 | 9.0 | 0.00 | 0.01 | 0.00 | 49 | 1017.1 |
| 20260502170307 | 47 | 277 | 5.0 | 11.0 | 0.00 | 0.01 | 0.00 | 52 | 1017.1 |
| 20260502164306 | 47 | 284 | 6.0 | 11.0 | 0.00 | 0.01 | 0.00 | 48 | 1017.2 |
| 20260502164001 | 47 | 288 | 6.0 | 11.0 | 0.00 | 0.01 | 0.00 | 47 | 1017.2 |
| 20260502163806 | 47 | 290 | 5.0 | 11.0 | 0.00 | 0.01 | 0.00 | 50 | 1017.2 |
| 20260502163502 | 47 | 304 | 5.0 | 11.0 | 0.00 | 0.01 | 0.00 | 50 | 1017.2 |
| 20260502163306 | 47 | 310 | 5.0 | 8.0 | 0.00 | 0.01 | 0.00 | 48 | 1017.2 |
| 20260502163001 | 48 | 301 | 5.0 | 9.0 | 0.00 | 0.01 | 0.00 | 48 | 1017.2 |
| 20260502162806 | 48 | 301 | 5.0 | 12.0 | 0.00 | 0.01 | 0.00 | 50 | 1017.2 |
| 20260502162501 | 48 | 298 | 5.0 | 12.0 | 0.00 | 0.01 | 0.00 | 49 | 1017.1 |
| 20260502162306 | 48 | 298 | 5.0 | 12.0 | 0.00 | 0.01 | 0.00 | 49 | 1017.1 |
| 20260502162002 | 48 | 302 | 5.0 | 12.0 | 0.00 | 0.01 | 0.00 | 48 | 1017.2 |
| 20260502161806 | 48 | 286 | 5.0 | 10.0 | 0.00 | 0.01 | 0.00 | 48 | 1017.1 |
| 20260502161502 | 48 | 276 | 5.0 | 10.0 | 0.00 | 0.01 | 0.00 | 48 | 1017.2 |
| 20260502161306 | 48 | 273 | 6.0 | 11.0 | 0.00 | 0.01 | 0.00 | 50 | 1017.1 |
| 20260502161001 | 48 | 271 | 7.0 | 13.0 | 0.00 | 0.01 | 0.00 | 51 | 1017.2 |
| 20260502160806 | 48 | 277 | 7.0 | 13.0 | 0.00 | 0.01 | 0.00 | 50 | 1017.1 |
| 20260502160502 | 48 | 279 | 7.0 | 13.0 | 0.00 | 0.01 | 0.00 | 51 | 1017.3 |
| 20260502160306 | 48 | 286 | 6.0 | 13.0 | 0.00 | 0.01 | 0.00 | 52 | 1017.3 |
| 20260502152305 | 45 | 300 | 6.0 | 13.0 | 0.00 | 0.01 | 0.00 | 57 | 1017.3 |
| 20260502152023 | 45 | 298 | 7.0 | 13.0 | 0.00 | 0.01 | 0.00 | 57 | 1017.3 |
| 20260502151805 | 45 | 296 | 6.0 | 13.0 | 0.00 | 0.01 | 0.00 | 58 | 1017.3 |
| 20260502151502 | 45 | 314 | 5.0 | 12.0 | 0.00 | 0.01 | 0.00 | 58 | 1017.3 |
| 20260502151305 | 45 | 320 | 5.0 | 13.0 | 0.00 | 0.01 | 0.00 | 58 | 1017.4 |
| 20260502151001 | 44 | 321 | 5.0 | 13.0 | 0.00 | 0.01 | 0.00 | 59 | 1017.3 |
| 20260502150805 | 44 | 321 | 6.0 | 13.0 | 0.00 | 0.01 | 0.00 | 58 | 1017.2 |
| 20260502150502 | 44 | 310 | 6.0 | 13.0 | 0.00 | 0.01 | 0.00 | 57 | 1017.2 |
| 20260502150305 | 44 | 308 | 5.0 | 13.0 | 0.00 | 0.01 | 0.00 | 59 | 1017.3 |
| 20260502130502 | 43 | 304 | 4.0 | 9.0 | 0.00 | 0.01 | 0.00 | 69 | 1017.4 |
| 20260502130303 | 43 | 300 | 4.0 | 9.0 | 0.00 | 0.01 | 0.00 | 68 | 1017.4 |
| 20260502123803 | 42 | 317 | 4.0 | 9.0 | 0.00 | 0.01 | 0.00 | 74 | 1017.3 |
| 20260502123502 | 42 | 319 | 3.0 | 7.0 | 0.00 | 0.01 | 0.00 | 73 | 1017.4 |
| 20260502123303 | 42 | 312 | 3.0 | 7.0 | 0.00 | 0.01 | 0.00 | 72 | 1017.3 |
| 20260502123002 | 42 | 305 | 3.0 | 7.0 | 0.00 | 0.01 | 0.00 | 71 | 1017.3 |
| 20260502122803 | 42 | 301 | 3.0 | 7.0 | 0.00 | 0.01 | 0.00 | 73 | 1017.3 |
| 20260502122502 | 42 | 296 | 4.0 | 8.0 | 0.00 | 0.01 | 0.00 | 76 | 1017.3 |
| 20260502122305 | 42 | 296 | 3.0 | 8.0 | 0.00 | 0.01 | 0.00 | 73 | 1017.4 |
| 20260502122003 | 42 | 294 | 3.0 | 8.0 | 0.00 | 0.01 | 0.00 | 73 | 1017.4 |
| 20260502121803 | 41 | 293 | 3.0 | 8.0 | 0.00 | 0.01 | 0.00 | 73 | 1017.4 |
| 20260502121503 | 41 | 293 | 3.0 | 7.0 | 0.00 | 0.01 | 0.00 | 74 | 1017.3 |
| 20260502121302 | 41 | 294 | 4.0 | 7.0 | 0.00 | 0.01 | 0.00 | 74 | 1017.3 |
| 20260502121002 | 41 | 296 | 4.0 | 8.0 | 0.00 | 0.01 | 0.00 | 73 | 1017.3 |
| 20260502120803 | 41 | 295 | 4.0 | 8.0 | 0.00 | 0.01 | 0.00 | 74 | 1017.3 |
| 20260502120502 | 41 | 294 | 4.0 | 8.0 | 0.00 | 0.01 | 0.00 | 74 | 1017.3 |
| 20260502120302 | 41 | 294 | 3.0 | 8.0 | 0.00 | 0.01 | 0.00 | 75 | 1017.3 |
| 20260502115802 | 41 | 289 | 3.0 | 7.0 | 0.00 | 0.01 | 0.00 | 77 | 1017.2 |
| 20260502115502 | 41 | 288 | 3.0 | 7.0 | 0.00 | 0.01 | 0.00 | 79 | 1017.2 |
| 20260502115305 | 41 | 290 | 4.0 | 7.0 | 0.00 | 0.01 | 0.00 | 82 | 1017.2 |
| 20260502115002 | 40 | 293 | 4.0 | 7.0 | 0.00 | 0.01 | 0.00 | 81 | 1017.3 |
| 20260502114802 | 40 | 294 | 4.0 | 7.0 | 0.00 | 0.01 | 0.00 | 81 | 1017.3 |
| 20260502114503 | 40 | 300 | 3.0 | 7.0 | 0.00 | 0.01 | 0.00 | 82 | 1017.3 |
| 20260502114302 | 39 | 302 | 3.0 | 7.0 | 0.00 | 0.01 | 0.00 | 81 | 1017.2 |
| 20260502114003 | 39 | 305 | 3.0 | 7.0 | 0.00 | 0.01 | 0.00 | 82 | 1017.3 |
| 20260502113802 | 38 | 311 | 2.0 | 5.0 | 0.00 | 0.01 | 0.00 | 80 | 1017.2 |
| 20260502113502 | 38 | 314 | 2.0 | 5.0 | 0.00 | 0.01 | 0.00 | 80 | 1017.2 |
| 20260502113302 | 38 | 315 | 1.0 | 4.0 | 0.00 | 0.01 | 0.00 | 80 | 1017.1 |
| 20260502113003 | 38 | 315 | 0.0 | 4.0 | 0.00 | 0.01 | 0.00 | 80 | 1017.1 |
| 20260502112802 | 37 | 0 | 0.0 | 0.0 | 0.00 | 0.01 | 0.00 | 80 | 1017.1 |
| 20260502112524 | 37 | 0 | 0.0 | 0.0 | 0.00 | 0.01 | 0.00 | 80 | 1017.1 |
| 20260502112305 | 37 | 0 | 0.0 | 0.0 | 0.00 | 0.01 | 0.00 | 79 | 1017.0 |
| 20260502112004 | 37 | 0 | 0.0 | 0.0 | 0.00 | 0.01 | 0.00 | 79 | 1017.1 |
| 20260502111802 | 37 | 0 | 0.0 | 0.0 | 0.00 | 0.01 | 0.00 | 79 | 1017.0 |
| 20260502111523 | 37 | 0 | 0.0 | 0.0 | 0.00 | 0.01 | 0.00 | 78 | 1017.0 |
| 20260502111301 | 37 | 0 | 0.0 | 0.0 | 0.00 | 0.01 | 0.00 | 78 | 1017.0 |
| 20260502111003 | 37 | 0 | 0.0 | 0.0 | 0.00 | 0.01 | 0.00 | 78 | 1017.0 |
| 20260502110801 | 37 | 0 | 0.0 | 0.0 | 0.00 | 0.01 | 0.00 | 78 | 1016.9 |
| 20260502110502 | 37 | 0 | 0.0 | 0.0 | 0.00 | 0.01 | 0.00 | 78 | 1017.0 |
| 20260502110301 | 37 | 0 | 0.0 | 0.0 | 0.00 | 0.01 | 0.00 | 78 | 1017.0 |
| 20260502110002 | 37 | 0 | 0.0 | 0.0 | 0.00 | 0.01 | 0.00 | 78 | 1016.9 |
| 20260502105801 | 37 | 0 | 0.0 | 0.0 | 0.00 | 0.01 | 0.00 | 77 | 1016.8 |
| 20260502105503 | 37 | 0 | 0.0 | 0.0 | 0.00 | 0.01 | 0.00 | 77 | 1016.8 |
| 20260502105301 | 37 | 0 | 0.0 | 0.0 | 0.00 | 0.01 | 0.00 | 77 | 1016.8 |
| 20260502105003 | 37 | 0 | 0.0 | 0.0 | 0.00 | 0.01 | 0.00 | 77 | 1016.8 |
| 20260502104801 | 37 | 0 | 0.0 | 0.0 | 0.00 | 0.01 | 0.00 | 77 | 1016.9 |
| 20260502104503 | 37 | 0 | 0.0 | 0.0 | 0.00 | 0.01 | 0.00 | 77 | 1016.9 |
| 20260502104301 | 38 | 0 | 0.0 | 0.0 | 0.00 | 0.01 | 0.00 | 77 | 1016.9 |
| 20260502104002 | 38 | 0 | 0.0 | 0.0 | 0.00 | 0.01 | 0.00 | 76 | 1016.9 |
| 20260502103801 | 38 | 0 | 0.0 | 0.0 | 0.00 | 0.01 | 0.00 | 76 | 1016.9 |
| 20260502103503 | 38 | 0 | 0.0 | 0.0 | 0.00 | 0.01 | 0.00 | 77 | 1016.9 |
| 20260502103301 | 38 | 0 | 0.0 | 0.0 | 0.00 | 0.01 | 0.00 | 77 | 1016.8 |
| 20260502103002 | 38 | 0 | 0.0 | 0.0 | 0.00 | 0.01 | 0.00 | 77 | 1016.8 |
| 20260502102801 | 38 | 0 | 0.0 | 0.0 | 0.00 | 0.01 | 0.00 | 77 | 1016.8 |
| 20260502102502 | 38 | 0 | 0.0 | 0.0 | 0.00 | 0.01 | 0.00 | 78 | 1016.9 |
| 20260502102301 | 38 | 0 | 0.0 | 0.0 | 0.00 | 0.01 | 0.00 | 78 | 1016.8 |
| 20260502102002 | 38 | 0 | 0.0 | 0.0 | 0.00 | 0.01 | 0.00 | 77 | 1016.7 |
| 20260502101801 | 38 | 0 | 0.0 | 0.0 | 0.00 | 0.01 | 0.00 | 76 | 1016.7 |
| 20260502101503 | 38 | 0 | 0.0 | 0.0 | 0.00 | 0.01 | 0.00 | 76 | 1016.7 |
| 20260502101301 | 38 | 0 | 0.0 | 0.0 | 0.00 | 0.01 | 0.00 | 76 | 1016.7 |
| 20260502101003 | 38 | 0 | 0.0 | 0.0 | 0.00 | 0.01 | 0.00 | 76 | 1016.7 |
| 20260502100800 | 38 | 0 | 0.0 | 0.0 | 0.00 | 0.01 | 0.00 | 77 | 1016.7 |
| 20260502100503 | 38 | 0 | 0.0 | 0.0 | 0.00 | 0.01 | 0.00 | 77 | 1016.7 |
| 20260502100300 | 38 | 0 | 0.0 | 0.0 | 0.00 | 0.01 | 0.00 | 77 | 1016.7 |
| 20260502091502 | 38 | 317 | 1.0 | 2.0 | 0.00 | 0.01 | 0.00 | 76 | 1016.6 |
| 20260502091300 | 38 | 317 | 1.0 | 2.0 | 0.00 | 0.01 | 0.00 | 76 | 1016.6 |
| 20260502091024 | 38 | 317 | 1.0 | 2.0 | 0.00 | 0.01 | 0.00 | 76 | 1016.6 |
| 20260502090800 | 38 | 317 | 0.0 | 2.0 | 0.00 | 0.01 | 0.00 | 76 | 1016.6 |
| 20260502090504 | 38 | 317 | 0.0 | 2.0 | 0.00 | 0.01 | 0.00 | 76 | 1016.6 |
| 20260502090300 | 38 | 317 | 0.0 | 2.0 | 0.00 | 0.01 | 0.00 | 76 | 1016.5 |
| 20260502071502 | 38 | 0 | 0.0 | 0.0 | 0.00 | 0.01 | 0.00 | 79 | 1016.3 |
| 20260502071258 | 38 | 0 | 0.0 | 0.0 | 0.00 | 0.01 | 0.00 | 79 | 1016.3 |
| 20260502071003 | 38 | 41 | 0.0 | 2.0 | 0.00 | 0.01 | 0.00 | 79 | 1016.4 |
| 20260502070758 | 38 | 41 | 1.0 | 2.0 | 0.00 | 0.01 | 0.00 | 79 | 1016.4 |
| 20260502070503 | 38 | 41 | 1.0 | 2.0 | 0.00 | 0.01 | 0.00 | 79 | 1016.4 |
| 20260502070258 | 38 | 41 | 1.0 | 2.0 | 0.00 | 0.01 | 0.00 | 79 | 1016.5 |
| 20260502070002 | 38 | 41 | 1.0 | 2.0 | 0.00 | 0.01 | 0.00 | 79 | 1016.5 |
| 20260502065758 | 38 | 41 | 1.0 | 3.0 | 0.00 | 0.01 | 0.00 | 79 | 1016.5 |
| 20260502065503 | 38 | 41 | 1.0 | 3.0 | 0.00 | 0.01 | 0.00 | 79 | 1016.5 |
| 20260502065258 | 38 | 14 | 1.0 | 5.0 | 0.00 | 0.01 | 0.00 | 78 | 1016.3 |
| 20260502065003 | 38 | 355 | 1.0 | 5.0 | 0.00 | 0.01 | 0.00 | 78 | 1016.4 |
| 20260502064758 | 38 | 333 | 2.0 | 5.0 | 0.00 | 0.01 | 0.00 | 77 | 1016.4 |
| 20260502064502 | 38 | 323 | 2.0 | 5.0 | 0.00 | 0.01 | 0.00 | 78 | 1016.4 |
| 20260502064258 | 38 | 313 | 1.0 | 4.0 | 0.00 | 0.01 | 0.00 | 78 | 1016.5 |
| 20260502064003 | 38 | 313 | 2.0 | 4.0 | 0.00 | 0.01 | 0.00 | 78 | 1016.6 |
| 20260502063758 | 38 | 313 | 2.0 | 4.0 | 0.00 | 0.01 | 0.00 | 77 | 1016.6 |
| 20260502063524 | 38 | 323 | 2.0 | 5.0 | 0.00 | 0.01 | 0.00 | 77 | 1016.6 |
| 20260502063258 | 38 | 340 | 3.0 | 5.0 | 0.00 | 0.01 | 0.00 | 77 | 1016.6 |
| 20260502063024 | 38 | 347 | 3.0 | 5.0 | 0.00 | 0.01 | 0.00 | 77 | 1016.6 |
| 20260502062757 | 38 | 4 | 3.0 | 5.0 | 0.00 | 0.01 | 0.00 | 77 | 1016.7 |
| 20260502062524 | 38 | 5 | 2.0 | 5.0 | 0.00 | 0.01 | 0.00 | 77 | 1016.6 |
| 20260502062257 | 38 | 5 | 2.0 | 5.0 | 0.00 | 0.01 | 0.00 | 76 | 1016.7 |
| 20260502062003 | 38 | 5 | 2.0 | 5.0 | 0.00 | 0.01 | 0.00 | 76 | 1016.7 |
| 20260502061757 | 39 | 5 | 2.0 | 4.0 | 0.00 | 0.01 | 0.00 | 77 | 1016.7 |
| 20260502061257 | 39 | 5 | 2.0 | 4.0 | 0.00 | 0.01 | 0.00 | 76 | 1016.8 |
| 20260502061003 | 39 | 5 | 2.0 | 4.0 | 0.00 | 0.01 | 0.00 | 76 | 1016.8 |
| 20260502060757 | 39 | 5 | 2.0 | 4.0 | 0.00 | 0.01 | 0.00 | 75 | 1016.9 |
| 20260502060502 | 39 | 5 | 2.0 | 3.0 | 0.00 | 0.01 | 0.00 | 75 | 1016.8 |
| 20260502060257 | 39 | 5 | 2.0 | 3.0 | 0.00 | 0.01 | 0.00 | 75 | 1016.9 |
| 20260502060024 | 39 | 5 | 2.0 | 3.0 | 0.00 | 0.01 | 0.00 | 76 | 1016.9 |
| 20260502055757 | 39 | 5 | 2.0 | 3.0 | 0.00 | 0.01 | 0.00 | 76 | 1016.9 |
| 20260502055503 | 39 | 5 | 2.0 | 3.0 | 0.00 | 0.01 | 0.00 | 76 | 1016.9 |
| 20260502055257 | 39 | 5 | 2.0 | 3.0 | 0.00 | 0.01 | 0.00 | 75 | 1017.0 |
| 20260502055003 | 39 | 5 | 2.0 | 4.0 | 0.00 | 0.01 | 0.00 | 75 | 1016.9 |
| 20260502054757 | 39 | 5 | 2.0 | 4.0 | 0.00 | 0.01 | 0.00 | 75 | 1017.0 |
| 20260502054503 | 39 | 5 | 2.0 | 4.0 | 0.00 | 0.01 | 0.00 | 75 | 1017.1 |
| 20260502054257 | 39 | 5 | 2.0 | 4.0 | 0.00 | 0.01 | 0.00 | 74 | 1017.0 |
| 20260502054003 | 39 | 5 | 2.0 | 3.0 | 0.00 | 0.01 | 0.00 | 74 | 1016.9 |
| 20260502053757 | 39 | 5 | 2.0 | 3.0 | 0.00 | 0.01 | 0.00 | 74 | 1016.9 |
| 20260502053503 | 39 | 5 | 2.0 | 3.0 | 0.00 | 0.01 | 0.00 | 74 | 1016.9 |
| 20260502053257 | 39 | 5 | 2.0 | 4.0 | 0.00 | 0.01 | 0.00 | 74 | 1016.9 |
| 20260502053003 | 39 | 5 | 2.0 | 4.0 | 0.00 | 0.01 | 0.00 | 74 | 1016.9 |
| 20260502052757 | 39 | 5 | 2.0 | 4.0 | 0.00 | 0.01 | 0.00 | 74 | 1016.9 |
| 20260502052504 | 39 | 5 | 2.0 | 4.0 | 0.00 | 0.01 | 0.00 | 74 | 1016.8 |
| 20260502052257 | 39 | 5 | 2.0 | 5.0 | 0.00 | 0.01 | 0.00 | 74 | 1016.8 |
| 20260502052024 | 39 | 5 | 2.0 | 5.0 | 0.00 | 0.01 | 0.00 | 74 | 1016.7 |
| 20260502051757 | 39 | 5 | 2.0 | 5.0 | 0.00 | 0.01 | 0.00 | 73 | 1016.8 |
| 20260502051503 | 39 | 5 | 2.0 | 5.0 | 0.00 | 0.01 | 0.00 | 74 | 1016.8 |
| 20260502051257 | 39 | 5 | 2.0 | 4.0 | 0.00 | 0.01 | 0.00 | 74 | 1016.7 |
| 20260502051003 | 39 | 5 | 2.0 | 4.0 | 0.00 | 0.01 | 0.00 | 74 | 1016.7 |
| 20260502050757 | 39 | 5 | 1.0 | 4.0 | 0.00 | 0.01 | 0.00 | 74 | 1016.7 |
| 20260502050503 | 39 | 5 | 1.0 | 3.0 | 0.00 | 0.01 | 0.00 | 74 | 1016.8 |
| 20260502050256 | 39 | 5 | 1.0 | 3.0 | 0.00 | 0.01 | 0.00 | 74 | 1016.8 |
| 20260502050003 | 39 | 5 | 1.0 | 3.0 | 0.00 | 0.01 | 0.00 | 74 | 1016.9 |
| 20260502045756 | 39 | 5 | 1.0 | 2.0 | 0.00 | 0.01 | 0.00 | 74 | 1016.9 |
| 20260502045503 | 39 | 5 | 1.0 | 3.0 | 0.00 | 0.01 | 0.00 | 74 | 1016.9 |
| 20260502045256 | 39 | 5 | 1.0 | 3.0 | 0.00 | 0.01 | 0.00 | 74 | 1016.8 |
| 20260502045003 | 39 | 5 | 1.0 | 3.0 | 0.00 | 0.01 | 0.00 | 74 | 1016.7 |
| 20260502044756 | 39 | 5 | 2.0 | 3.0 | 0.00 | 0.01 | 0.00 | 74 | 1016.7 |
| 20260502044502 | 39 | 5 | 2.0 | 3.0 | 0.00 | 0.01 | 0.00 | 74 | 1016.7 |
| 20260502044256 | 39 | 5 | 1.0 | 3.0 | 0.00 | 0.01 | 0.00 | 74 | 1016.6 |
| 20260502044003 | 39 | 5 | 1.0 | 3.0 | 0.00 | 0.01 | 0.00 | 73 | 1016.7 |
| 20260502043756 | 39 | 5 | 1.0 | 3.0 | 0.00 | 0.01 | 0.00 | 74 | 1016.7 |
| 20260502043503 | 39 | 5 | 1.0 | 3.0 | 0.00 | 0.01 | 0.00 | 73 | 1016.7 |
| 20260502043256 | 39 | 5 | 1.0 | 3.0 | 0.00 | 0.01 | 0.00 | 73 | 1016.6 |
| 20260502043002 | 39 | 5 | 1.0 | 3.0 | 0.00 | 0.01 | 0.00 | 73 | 1016.6 |
| 20260502042756 | 39 | 5 | 1.0 | 3.0 | 0.00 | 0.01 | 0.00 | 73 | 1016.5 |
| 20260502042503 | 39 | 5 | 1.0 | 3.0 | 0.00 | 0.01 | 0.00 | 73 | 1016.6 |
| 20260502042256 | 39 | 5 | 1.0 | 3.0 | 0.00 | 0.01 | 0.00 | 73 | 1016.6 |
| 20260502042003 | 39 | 5 | 1.0 | 3.0 | 0.00 | 0.01 | 0.00 | 73 | 1016.6 |
| 20260502041756 | 39 | 5 | 1.0 | 3.0 | 0.00 | 0.01 | 0.00 | 73 | 1016.5 |
| 20260502041503 | 39 | 5 | 1.0 | 3.0 | 0.00 | 0.01 | 0.00 | 73 | 1016.6 |
| 20260502041256 | 39 | 5 | 2.0 | 3.0 | 0.00 | 0.01 | 0.00 | 73 | 1016.6 |
| 20260502041004 | 39 | 5 | 1.0 | 3.0 | 0.00 | 0.01 | 0.00 | 72 | 1016.5 |
| 20260502040756 | 39 | 5 | 1.0 | 3.0 | 0.00 | 0.01 | 0.00 | 72 | 1016.5 |
| 20260502040503 | 39 | 5 | 1.0 | 3.0 | 0.00 | 0.01 | 0.00 | 71 | 1016.4 |
| 20260502040256 | 39 | 5 | 1.0 | 3.0 | 0.00 | 0.01 | 0.00 | 71 | 1016.4 |
| 20260502040024 | 39 | 5 | 1.0 | 3.0 | 0.00 | 0.01 | 0.00 | 71 | 1016.4 |
| 20260502035756 | 39 | 5 | 1.0 | 2.0 | 0.00 | 0.01 | 0.01 | 71 | 1016.4 |
| 20260502035503 | 39 | 5 | 1.0 | 3.0 | 0.00 | 0.01 | 0.01 | 70 | 1016.5 |
| 20260502035255 | 39 | 5 | 2.0 | 5.0 | 0.00 | 0.01 | 0.01 | 70 | 1016.5 |
| 20260502035003 | 39 | 5 | 2.0 | 5.0 | 0.00 | 0.01 | 0.01 | 69 | 1016.5 |
| 20260502034755 | 39 | 5 | 2.0 | 5.0 | 0.00 | 0.01 | 0.01 | 69 | 1016.6 |
| 20260502034503 | 39 | 5 | 2.0 | 5.0 | 0.00 | 0.01 | 0.01 | 69 | 1016.5 |
| 20260502034255 | 39 | 5 | 2.0 | 5.0 | 0.00 | 0.01 | 0.01 | 69 | 1016.6 |
| 20260502034025 | 39 | 5 | 2.0 | 4.0 | 0.00 | 0.01 | 0.01 | 69 | 1016.5 |
| 20260502033755 | 39 | 5 | 1.0 | 3.0 | 0.00 | 0.01 | 0.01 | 70 | 1016.6 |
| 20260502033503 | 39 | 5 | 1.0 | 3.0 | 0.00 | 0.01 | 0.01 | 69 | 1016.7 |
| 20260502033255 | 39 | 9 | 2.0 | 5.0 | 0.00 | 0.01 | 0.01 | 70 | 1016.7 |
| 20260502033025 | 39 | 13 | 2.0 | 5.0 | 0.00 | 0.01 | 0.01 | 70 | 1016.7 |
| 20260502032755 | 39 | 19 | 2.0 | 5.0 | 0.00 | 0.01 | 0.01 | 70 | 1016.6 |
| 20260502032525 | 40 | 16 | 2.0 | 5.0 | 0.00 | 0.01 | 0.01 | 70 | 1016.6 |
| 20260502032255 | 40 | 9 | 2.0 | 6.0 | 0.00 | 0.01 | 0.01 | 70 | 1016.6 |
| 20260502032003 | 40 | 4 | 2.0 | 6.0 | 0.00 | 0.01 | 0.01 | 70 | 1016.6 |
| 20260502031755 | 40 | 360 | 2.0 | 6.0 | 0.00 | 0.01 | 0.01 | 70 | 1016.5 |
| 20260502031503 | 40 | 8 | 2.0 | 6.0 | 0.00 | 0.01 | 0.01 | 70 | 1016.6 |
| 20260502031255 | 40 | 24 | 2.0 | 5.0 | 0.00 | 0.01 | 0.01 | 70 | 1016.6 |
| 20260502031024 | 40 | 31 | 2.0 | 5.0 | 0.00 | 0.01 | 0.01 | 70 | 1016.5 |
| 20260502030755 | 40 | 46 | 2.0 | 3.0 | 0.00 | 0.01 | 0.01 | 70 | 1016.5 |
| 20260502030503 | 40 | 46 | 2.0 | 4.0 | 0.00 | 0.01 | 0.01 | 70 | 1016.6 |
| 20260502030255 | 40 | 46 | 2.0 | 4.0 | 0.00 | 0.01 | 0.01 | 70 | 1016.6 |
| 20260502030003 | 40 | 46 | 2.0 | 4.0 | 0.00 | 0.01 | 0.01 | 70 | 1016.5 |
| 20260502025755 | 40 | 46 | 3.0 | 4.0 | 0.00 | 0.01 | 0.01 | 70 | 1016.6 |
| 20260502025503 | 40 | 50 | 3.0 | 6.0 | 0.00 | 0.01 | 0.01 | 70 | 1016.6 |
| 20260502025255 | 40 | 57 | 3.0 | 7.0 | 0.00 | 0.01 | 0.01 | 72 | 1016.5 |
| 20260502025003 | 40 | 59 | 3.0 | 7.0 | 0.00 | 0.01 | 0.01 | 72 | 1016.5 |
| 20260502024755 | 40 | 66 | 3.0 | 7.0 | 0.00 | 0.01 | 0.01 | 72 | 1016.5 |
| 20260502024503 | 40 | 68 | 3.0 | 7.0 | 0.00 | 0.01 | 0.01 | 72 | 1016.5 |
| 20260502024254 | 40 | 63 | 4.0 | 8.0 | 0.00 | 0.01 | 0.01 | 71 | 1016.5 |
| 20260502024003 | 40 | 62 | 4.0 | 8.0 | 0.00 | 0.01 | 0.01 | 70 | 1016.5 |
| 20260502023754 | 40 | 64 | 4.0 | 8.0 | 0.00 | 0.01 | 0.01 | 70 | 1016.4 |
| 20260502023503 | 40 | 65 | 4.0 | 9.0 | 0.00 | 0.01 | 0.01 | 70 | 1016.4 |
| 20260502023254 | 41 | 70 | 4.0 | 9.0 | 0.00 | 0.01 | 0.01 | 70 | 1016.4 |
| 20260502023004 | 41 | 73 | 4.0 | 9.0 | 0.00 | 0.01 | 0.01 | 71 | 1016.3 |
| 20260502022754 | 41 | 70 | 4.0 | 9.0 | 0.00 | 0.01 | 0.01 | 70 | 1016.3 |
| 20260502022503 | 41 | 68 | 4.0 | 10.0 | 0.00 | 0.01 | 0.01 | 70 | 1016.4 |
| 20260502022254 | 41 | 65 | 4.0 | 10.0 | 0.00 | 0.01 | 0.01 | 70 | 1016.3 |
| 20260502022003 | 41 | 61 | 4.0 | 11.0 | 0.00 | 0.01 | 0.01 | 71 | 1016.3 |
| 20260502021754 | 41 | 59 | 4.0 | 11.0 | 0.00 | 0.01 | 0.01 | 71 | 1016.2 |
| 20260502021503 | 41 | 59 | 4.0 | 11.0 | 0.00 | 0.01 | 0.01 | 72 | 1016.2 |
| 20260502021254 | 41 | 57 | 3.0 | 11.0 | 0.00 | 0.01 | 0.01 | 71 | 1016.1 |
| 20260502021004 | 41 | 55 | 3.0 | 6.0 | 0.00 | 0.01 | 0.01 | 71 | 1016.0 |
| 20260502020754 | 41 | 60 | 3.0 | 6.0 | 0.00 | 0.01 | 0.01 | 72 | 1016.1 |
| 20260502020503 | 41 | 60 | 3.0 | 6.0 | 0.00 | 0.01 | 0.01 | 73 | 1016.0 |
| 20260502020254 | 41 | 71 | 3.0 | 6.0 | 0.00 | 0.01 | 0.01 | 73 | 1016.0 |
| 20260502020025 | 41 | 75 | 3.0 | 6.0 | 0.00 | 0.01 | 0.01 | 72 | 1016.0 |
| 20260502015754 | 41 | 75 | 3.0 | 6.0 | 0.00 | 0.01 | 0.01 | 72 | 1015.9 |
| 20260502015504 | 41 | 75 | 3.0 | 7.0 | 0.00 | 0.01 | 0.01 | 72 | 1015.8 |
| 20260502015254 | 41 | 70 | 3.0 | 7.0 | 0.00 | 0.01 | 0.01 | 72 | 1015.8 |
| 20260502015024 | 41 | 70 | 3.0 | 7.0 | 0.00 | 0.01 | 0.01 | 72 | 1015.7 |
| 20260502014754 | 41 | 69 | 3.0 | 7.0 | 0.00 | 0.01 | 0.01 | 72 | 1015.8 |
| 20260502014524 | 41 | 69 | 3.0 | 6.0 | 0.00 | 0.01 | 0.01 | 71 | 1015.8 |
| 20260502014254 | 41 | 67 | 3.0 | 7.0 | 0.00 | 0.01 | 0.01 | 72 | 1015.7 |
| 20260502014003 | 41 | 67 | 3.0 | 7.0 | 0.00 | 0.01 | 0.01 | 72 | 1015.7 |
| 20260502013754 | 41 | 67 | 3.0 | 7.0 | 0.00 | 0.01 | 0.01 | 72 | 1015.7 |
| 20260502013503 | 41 | 63 | 3.0 | 8.0 | 0.00 | 0.01 | 0.01 | 71 | 1015.7 |
| 20260502013253 | 41 | 70 | 3.0 | 10.0 | 0.00 | 0.01 | 0.01 | 71 | 1015.6 |
| 20260502013003 | 41 | 68 | 4.0 | 10.0 | 0.00 | 0.01 | 0.01 | 71 | 1015.6 |
| 20260502012753 | 41 | 66 | 4.0 | 10.0 | 0.00 | 0.01 | 0.01 | 71 | 1015.6 |
| 20260502012503 | 41 | 69 | 3.0 | 10.0 | 0.00 | 0.01 | 0.01 | 71 | 1015.6 |
| 20260502012253 | 41 | 67 | 3.0 | 7.0 | 0.01 | 0.01 | 0.01 | 71 | 1015.6 |
| 20260502012003 | 41 | 70 | 3.0 | 5.0 | 0.01 | 0.01 | 0.01 | 71 | 1015.5 |
| 20260502011753 | 41 | 73 | 3.0 | 9.0 | 0.01 | 0.01 | 0.01 | 70 | 1015.5 |
| 20260502011504 | 41 | 73 | 3.0 | 9.0 | 0.01 | 0.01 | 0.01 | 71 | 1015.5 |
| 20260502011253 | 41 | 72 | 3.0 | 9.0 | 0.01 | 0.01 | 0.01 | 71 | 1015.4 |
| 20260502011003 | 41 | 69 | 3.0 | 9.0 | 0.01 | 0.01 | 0.01 | 71 | 1015.4 |
| 20260502010753 | 41 | 64 | 4.0 | 11.0 | 0.01 | 0.01 | 0.01 | 71 | 1015.3 |
| 20260502010503 | 41 | 62 | 4.0 | 11.0 | 0.01 | 0.01 | 0.01 | 70 | 1015.3 |
| 20260502010253 | 41 | 61 | 5.0 | 11.0 | 0.01 | 0.01 | 0.01 | 70 | 1015.4 |
| 20260502010004 | 41 | 62 | 5.0 | 11.0 | 0.01 | 0.01 | 0.01 | 69 | 1015.3 |
| 20260502005753 | 41 | 65 | 4.0 | 9.0 | 0.01 | 0.01 | 0.01 | 69 | 1015.3 |
| 20260502005504 | 41 | 66 | 4.0 | 9.0 | 0.01 | 0.01 | 0.01 | 70 | 1015.3 |
| 20260502005253 | 41 | 68 | 4.0 | 9.0 | 0.01 | 0.01 | 0.01 | 70 | 1015.2 |
| 20260502005003 | 41 | 65 | 4.0 | 9.0 | 0.01 | 0.01 | 0.01 | 72 | 1015.2 |
| 20260502004753 | 41 | 64 | 4.0 | 9.0 | 0.01 | 0.01 | 0.01 | 72 | 1015.2 |
| 20260502004503 | 41 | 64 | 4.0 | 9.0 | 0.01 | 0.01 | 0.01 | 71 | 1015.2 |
| 20260502004253 | 41 | 65 | 4.0 | 9.0 | 0.01 | 0.01 | 0.01 | 71 | 1015.3 |
| 20260502004004 | 41 | 69 | 3.0 | 8.0 | 0.01 | 0.01 | 0.01 | 71 | 1015.3 |
| 20260502003723 | 41 | 68 | 3.0 | 8.0 | 0.01 | 0.01 | 0.01 | 72 | 1015.3 |
| 20260502003522 | 41 | 65 | 3.0 | 8.0 | 0.01 | 0.01 | 0.01 | 73 | 1015.2 |
| 20260502003223 | 41 | 60 | 3.0 | 7.0 | 0.01 | 0.01 | 0.01 | 73 | 1015.2 |
| 20260502003001 | 42 | 58 | 3.0 | 7.0 | 0.01 | 0.01 | 0.01 | 73 | 1015.2 |
| 20260502002722 | 42 | 60 | 2.0 | 4.0 | 0.01 | 0.01 | 0.01 | 74 | 1015.2 |
| 20260502002522 | 42 | 60 | 2.0 | 4.0 | 0.01 | 0.01 | 0.01 | 75 | 1015.1 |
| 20260502002222 | 42 | 58 | 2.0 | 4.0 | 0.00 | 0.00 | 0.00 | 74 | 1015.2 |
| 20260502002001 | 42 | 58 | 3.0 | 5.0 | 0.00 | 0.00 | 0.00 | 74 | 1015.2 |
| 20260502001722 | 43 | 62 | 3.0 | 7.0 | 0.00 | 0.00 | 0.00 | 74 | 1015.1 |
| 20260502001522 | 43 | 60 | 3.0 | 7.0 | 0.00 | 0.00 | 0.00 | 74 | 1015.1 |
| 20260502001222 | 43 | 65 | 3.0 | 8.0 | 0.00 | 0.00 | 0.00 | 74 | 1015.0 |
| 20260502001001 | 43 | 66 | 3.0 | 8.0 | 0.00 | 0.00 | 0.00 | 74 | 1015.0 |
| 20260502000722 | 43 | 66 | 3.0 | 8.0 | 0.00 | 0.00 | 0.00 | 73 | 1015.0 |
| 20260502000501 | 43 | 71 | 3.0 | 8.0 | 0.00 | 0.00 | 0.00 | 73 | 1015.0 |
| 20260502000222 | 43 | 70 | 3.0 | 7.0 | 0.00 | 0.00 | 0.00 | 73 | 1014.9 |
| 20260502000002 | 43 | 71 | 3.0 | 7.0 | 0.00 | 0.00 | 0.00 | 73 | 1014.9 |
| 20260501235722 | 43 | 68 | 3.0 | 7.0 | 0.00 | 0.00 | 0.00 | 73 | 1014.9 |
| 20260501235501 | 44 | 63 | 3.0 | 6.0 | 0.00 | 0.00 | 0.00 | 73 | 1014.7 |
| 20260501235222 | 44 | 59 | 2.0 | 5.0 | 0.00 | 0.00 | 0.00 | 73 | 1014.8 |
| 20260501235002 | 44 | 58 | 3.0 | 7.0 | 0.00 | 0.00 | 0.00 | 73 | 1014.7 |
| 20260501234722 | 44 | 62 | 3.0 | 7.0 | 0.00 | 0.00 | 0.00 | 73 | 1014.6 |
| 20260501234522 | 44 | 64 | 3.0 | 7.0 | 0.00 | 0.00 | 0.00 | 73 | 1014.7 |
| 20260501234222 | 44 | 68 | 3.0 | 7.0 | 0.00 | 0.00 | 0.00 | 74 | 1014.6 |
| 20260501234002 | 44 | 70 | 3.0 | 5.0 | 0.00 | 0.00 | 0.00 | 74 | 1014.6 |
| 20260501233722 | 44 | 68 | 3.0 | 5.0 | 0.00 | 0.00 | 0.00 | 74 | 1014.6 |
| 20260501233501 | 44 | 67 | 3.0 | 5.0 | 0.00 | 0.00 | 0.00 | 75 | 1014.5 |
| 20260501233222 | 44 | 69 | 2.0 | 5.0 | 0.00 | 0.00 | 0.00 | 75 | 1014.5 |
| 20260501233002 | 44 | 71 | 2.0 | 5.0 | 0.00 | 0.00 | 0.00 | 75 | 1014.5 |
| 20260501232721 | 44 | 71 | 2.0 | 5.0 | 0.00 | 0.00 | 0.00 | 76 | 1014.5 |
| 20260501232501 | 44 | 69 | 2.0 | 5.0 | 0.00 | 0.00 | 0.00 | 76 | 1014.5 |
| 20260501232221 | 44 | 65 | 3.0 | 9.0 | 0.00 | 0.00 | 0.00 | 76 | 1014.5 |
| 20260501232001 | 44 | 64 | 3.0 | 9.0 | 0.00 | 0.00 | 0.00 | 76 | 1014.4 |
| 20260501231721 | 44 | 64 | 3.0 | 9.0 | 0.00 | 0.00 | 0.00 | 76 | 1014.3 |
| 20260501231501 | 44 | 64 | 3.0 | 9.0 | 0.00 | 0.00 | 0.00 | 76 | 1014.3 |
| 20260501231221 | 44 | 65 | 2.0 | 9.0 | 0.00 | 0.00 | 0.00 | 76 | 1014.3 |
| 20260501231001 | 44 | 63 | 2.0 | 9.0 | 0.00 | 0.00 | 0.00 | 77 | 1014.4 |
| 20260501230721 | 44 | 61 | 2.0 | 3.0 | 0.00 | 0.00 | 0.00 | 77 | 1014.3 |
| 20260501230502 | 44 | 62 | 2.0 | 6.0 | 0.00 | 0.00 | 0.00 | 76 | 1014.3 |
| 20260501230221 | 44 | 66 | 2.0 | 6.0 | 0.00 | 0.00 | 0.00 | 76 | 1014.3 |
| 20260501230001 | 44 | 68 | 3.0 | 6.0 | 0.00 | 0.00 | 0.00 | 76 | 1014.4 |
| 20260501225721 | 44 | 70 | 3.0 | 6.0 | 0.00 | 0.00 | 0.00 | 76 | 1014.4 |
| 20260501225502 | 44 | 69 | 3.0 | 7.0 | 0.00 | 0.00 | 0.00 | 77 | 1014.4 |
| 20260501225221 | 44 | 65 | 3.0 | 8.0 | 0.00 | 0.00 | 0.00 | 77 | 1014.2 |
| 20260501225002 | 44 | 65 | 3.0 | 8.0 | 0.00 | 0.00 | 0.00 | 77 | 1014.3 |
| 20260501224721 | 44 | 68 | 3.0 | 8.0 | 0.00 | 0.00 | 0.00 | 77 | 1014.3 |
| 20260501224501 | 44 | 70 | 3.0 | 8.0 | 0.00 | 0.00 | 0.00 | 77 | 1014.3 |
| 20260501224221 | 44 | 74 | 2.0 | 5.0 | 0.00 | 0.00 | 0.00 | 78 | 1014.3 |
| 20260501224001 | 44 | 71 | 3.0 | 5.0 | 0.00 | 0.00 | 0.00 | 78 | 1014.3 |
| 20260501223721 | 44 | 65 | 3.0 | 6.0 | 0.00 | 0.00 | 0.00 | 77 | 1014.3 |
| 20260501223502 | 44 | 67 | 3.0 | 6.0 | 0.00 | 0.00 | 0.00 | 76 | 1014.2 |
| 20260501223221 | 45 | 69 | 3.0 | 8.0 | 0.00 | 0.00 | 0.00 | 76 | 1014.2 |
| 20260501223001 | 45 | 70 | 4.0 | 8.0 | 0.00 | 0.00 | 0.00 | 77 | 1014.3 |
| 20260501222721 | 45 | 66 | 3.0 | 8.0 | 0.00 | 0.00 | 0.00 | 76 | 1014.2 |
| 20260501222501 | 45 | 62 | 4.0 | 8.0 | 0.00 | 0.00 | 0.00 | 76 | 1014.2 |
| 20260501222221 | 45 | 56 | 3.0 | 7.0 | 0.00 | 0.00 | 0.00 | 75 | 1014.2 |
| 20260501222002 | 46 | 50 | 3.0 | 6.0 | 0.00 | 0.00 | 0.00 | 75 | 1014.2 |
| 20260501221721 | 46 | 47 | 3.0 | 5.0 | 0.00 | 0.00 | 0.00 | 74 | 1014.2 |
| 20260501221501 | 46 | 44 | 3.0 | 5.0 | 0.00 | 0.00 | 0.00 | 74 | 1014.2 |
| 20260501221221 | 46 | 44 | 3.0 | 7.0 | 0.00 | 0.00 | 0.00 | 72 | 1014.1 |
| 20260501221001 | 46 | 48 | 3.0 | 7.0 | 0.00 | 0.00 | 0.00 | 72 | 1014.1 |
| 20260501220721 | 47 | 54 | 3.0 | 9.0 | 0.00 | 0.00 | 0.00 | 71 | 1014.0 |
| 20260501220501 | 47 | 54 | 3.0 | 9.0 | 0.00 | 0.00 | 0.00 | 70 | 1014.0 |
| 20260501220220 | 48 | 55 | 3.0 | 9.0 | 0.00 | 0.00 | 0.00 | 70 | 1013.9 |
| 20260501220023 | 48 | 57 | 3.0 | 9.0 | 0.00 | 0.00 | 0.00 | 70 | 1013.9 |
| 20260501215720 | 48 | 48 | 2.0 | 6.0 | 0.00 | 0.00 | 0.00 | 68 | 1013.9 |
| 20260501215501 | 48 | 45 | 2.0 | 6.0 | 0.00 | 0.00 | 0.00 | 67 | 1013.7 |
| 20260501215220 | 48 | 39 | 2.0 | 6.0 | 0.00 | 0.00 | 0.00 | 65 | 1013.8 |
| 20260501215001 | 48 | 13 | 2.0 | 10.0 | 0.00 | 0.00 | 0.00 | 62 | 1013.8 |
| 20260501214720 | 48 | 359 | 2.0 | 10.0 | 0.00 | 0.00 | 0.00 | 59 | 1013.7 |
| 20260501214502 | 48 | 348 | 3.0 | 10.0 | 0.00 | 0.00 | 0.00 | 59 | 1013.7 |
| 20260501214220 | 48 | 346 | 3.0 | 10.0 | 0.00 | 0.00 | 0.00 | 59 | 1013.8 |
| 20260501214001 | 48 | 346 | 3.0 | 9.0 | 0.00 | 0.00 | 0.00 | 59 | 1013.8 |
| 20260501213720 | 48 | 341 | 3.0 | 9.0 | 0.00 | 0.00 | 0.00 | 60 | 1013.8 |
| 20260501213501 | 48 | 345 | 3.0 | 8.0 | 0.00 | 0.00 | 0.00 | 61 | 1013.7 |
| 20260501213220 | 48 | 349 | 3.0 | 8.0 | 0.00 | 0.00 | 0.00 | 60 | 1013.6 |
| 20260501213001 | 48 | 350 | 3.0 | 8.0 | 0.00 | 0.00 | 0.00 | 59 | 1013.7 |
| 20260501212720 | 48 | 352 | 3.0 | 8.0 | 0.00 | 0.00 | 0.00 | 59 | 1013.7 |
| 20260501212502 | 48 | 351 | 3.0 | 8.0 | 0.00 | 0.00 | 0.00 | 59 | 1013.6 |
| 20260501212220 | 48 | 323 | 3.0 | 12.0 | 0.00 | 0.00 | 0.00 | 61 | 1013.6 |
| 20260501212001 | 48 | 322 | 3.0 | 12.0 | 0.00 | 0.00 | 0.00 | 60 | 1013.6 |
| 20260501211720 | 48 | 327 | 4.0 | 12.0 | 0.00 | 0.00 | 0.00 | 60 | 1013.5 |
| 20260501211501 | 48 | 326 | 4.0 | 12.0 | 0.00 | 0.00 | 0.00 | 61 | 1013.5 |
| 20260501211220 | 48 | 341 | 3.0 | 9.0 | 0.00 | 0.00 | 0.00 | 61 | 1013.5 |
| 20260501211002 | 48 | 341 | 3.0 | 9.0 | 0.00 | 0.00 | 0.00 | 60 | 1013.5 |
| 20260501210720 | 48 | 336 | 4.0 | 10.0 | 0.00 | 0.00 | 0.00 | 61 | 1013.4 |
| 20260501210523 | 48 | 346 | 4.0 | 11.0 | 0.00 | 0.00 | 0.00 | 60 | 1013.3 |
| 20260501210220 | 48 | 342 | 5.0 | 11.0 | 0.00 | 0.00 | 0.00 | 60 | 1013.3 |
| 20260501210001 | 48 | 344 | 5.0 | 11.0 | 0.00 | 0.00 | 0.00 | 60 | 1013.4 |
| 20260501205719 | 48 | 341 | 5.0 | 11.0 | 0.00 | 0.00 | 0.00 | 60 | 1013.3 |
| 20260501205502 | 48 | 336 | 5.0 | 11.0 | 0.00 | 0.00 | 0.00 | 59 | 1013.4 |
| 20260501205219 | 48 | 336 | 5.0 | 11.0 | 0.00 | 0.00 | 0.00 | 59 | 1013.3 |
| 20260501205023 | 48 | 334 | 5.0 | 11.0 | 0.00 | 0.00 | 0.00 | 59 | 1013.3 |
| 20260501204719 | 49 | 341 | 4.0 | 10.0 | 0.00 | 0.00 | 0.00 | 59 | 1013.3 |
| 20260501204501 | 49 | 343 | 4.0 | 10.0 | 0.00 | 0.00 | 0.00 | 58 | 1013.2 |
| 20260501204219 | 49 | 351 | 3.0 | 10.0 | 0.00 | 0.00 | 0.00 | 59 | 1013.2 |
| 20260501204002 | 49 | 350 | 3.0 | 10.0 | 0.00 | 0.00 | 0.00 | 59 | 1013.1 |
| 20260501203719 | 49 | 352 | 3.0 | 9.0 | 0.00 | 0.00 | 0.00 | 58 | 1013.1 |
| 20260501203522 | 50 | 348 | 3.0 | 9.0 | 0.00 | 0.00 | 0.00 | 58 | 1013.0 |
| 20260501203219 | 50 | 331 | 3.0 | 9.0 | 0.00 | 0.00 | 0.00 | 58 | 1013.2 |
| 20260501203002 | 50 | 322 | 3.0 | 8.0 | 0.00 | 0.00 | 0.00 | 59 | 1013.2 |
| 20260501202719 | 50 | 322 | 3.0 | 8.0 | 0.00 | 0.00 | 0.00 | 59 | 1013.3 |
| 20260501202501 | 50 | 335 | 3.0 | 8.0 | 0.00 | 0.00 | 0.00 | 62 | 1013.3 |
| 20260501202219 | 50 | 23 | 3.0 | 5.0 | 0.00 | 0.00 | 0.00 | 60 | 1013.3 |
| 20260501202001 | 50 | 60 | 3.0 | 5.0 | 0.00 | 0.00 | 0.00 | 59 | 1013.4 |
| 20260501201719 | 49 | 73 | 3.0 | 5.0 | 0.00 | 0.00 | 0.00 | 61 | 1013.4 |
| 20260501201523 | 49 | 69 | 3.0 | 5.0 | 0.00 | 0.00 | 0.00 | 60 | 1013.4 |
| 20260501201219 | 49 | 56 | 3.0 | 5.0 | 0.00 | 0.00 | 0.00 | 59 | 1013.3 |
| 20260501201001 | 49 | 44 | 2.0 | 5.0 | 0.00 | 0.00 | 0.00 | 60 | 1013.3 |
| 20260501200719 | 49 | 24 | 2.0 | 4.0 | 0.00 | 0.00 | 0.00 | 62 | 1013.2 |
| 20260501200501 | 49 | 14 | 2.0 | 8.0 | 0.00 | 0.00 | 0.00 | 61 | 1013.4 |
| 20260501200219 | 49 | 352 | 3.0 | 8.0 | 0.00 | 0.00 | 0.00 | 62 | 1013.3 |
| 20260501200002 | 48 | 345 | 3.0 | 8.0 | 0.00 | 0.00 | 0.00 | 62 | 1013.3 |
| 20260501195719 | 48 | 332 | 4.0 | 9.0 | 0.00 | 0.00 | 0.00 | 61 | 1013.4 |
| 20260501195502 | 48 | 329 | 4.0 | 9.0 | 0.00 | 0.00 | 0.00 | 60 | 1013.3 |
| 20260501195219 | 49 | 332 | 4.0 | 9.0 | 0.00 | 0.00 | 0.00 | 60 | 1013.3 |
| 20260501195001 | 49 | 336 | 4.0 | 9.0 | 0.00 | 0.00 | 0.00 | 60 | 1013.4 |
| 20260501194718 | 49 | 346 | 3.0 | 8.0 | 0.00 | 0.00 | 0.00 | 60 | 1013.3 |
| 20260501194501 | 49 | 347 | 3.0 | 8.0 | 0.00 | 0.00 | 0.00 | 60 | 1013.3 |
| 20260501194218 | 49 | 330 | 3.0 | 8.0 | 0.00 | 0.00 | 0.00 | 60 | 1013.2 |
| 20260501194022 | 49 | 320 | 4.0 | 8.0 | 0.00 | 0.00 | 0.00 | 59 | 1013.1 |
| 20260501193718 | 49 | 320 | 4.0 | 9.0 | 0.00 | 0.00 | 0.00 | 59 | 1013.1 |
| 20260501193502 | 48 | 318 | 4.0 | 9.0 | 0.00 | 0.00 | 0.00 | 58 | 1013.1 |
| 20260501193218 | 48 | 320 | 3.0 | 9.0 | 0.00 | 0.00 | 0.00 | 59 | 1013.1 |
| 20260501193002 | 48 | 326 | 3.0 | 9.0 | 0.00 | 0.00 | 0.00 | 59 | 1013.0 |
| 20260501192718 | 48 | 335 | 3.0 | 9.0 | 0.00 | 0.00 | 0.00 | 59 | 1013.1 |
| 20260501192501 | 48 | 351 | 3.0 | 9.0 | 0.00 | 0.00 | 0.00 | 59 | 1013.1 |
| 20260501192218 | 48 | 3 | 3.0 | 9.0 | 0.00 | 0.00 | 0.00 | 60 | 1013.1 |
| 20260501192023 | 48 | 5 | 2.0 | 9.0 | 0.00 | 0.00 | 0.00 | 60 | 1013.2 |
| 20260501191718 | 48 | 354 | 2.0 | 5.0 | 0.00 | 0.00 | 0.00 | 62 | 1013.1 |
| 20260501191502 | 48 | 346 | 2.0 | 5.0 | 0.00 | 0.00 | 0.00 | 63 | 1013.1 |
| 20260501191218 | 48 | 359 | 2.0 | 6.0 | 0.00 | 0.00 | 0.00 | 61 | 1013.1 |
| 20260501191001 | 48 | 2 | 3.0 | 7.0 | 0.00 | 0.00 | 0.00 | 61 | 1013.1 |
| 20260501190718 | 48 | 10 | 3.0 | 7.0 | 0.00 | 0.00 | 0.00 | 61 | 1013.2 |
| 20260501190501 | 48 | 10 | 3.0 | 7.0 | 0.00 | 0.00 | 0.00 | 61 | 1013.1 |
| 20260501190218 | 48 | 25 | 3.0 | 7.0 | 0.00 | 0.00 | 0.00 | 61 | 1013.0 |
| 20260501190002 | 48 | 37 | 3.0 | 7.0 | 0.00 | 0.00 | 0.00 | 62 | 1013.1 |
| 20260501185718 | 48 | 72 | 2.0 | 7.0 | 0.00 | 0.00 | 0.00 | 65 | 1013.1 |
| 20260501185501 | 48 | 86 | 2.0 | 5.0 | 0.00 | 0.00 | 0.00 | 67 | 1013.2 |
| 20260501185218 | 48 | 100 | 1.0 | 5.0 | 0.00 | 0.00 | 0.00 | 68 | 1013.1 |
| 20260501185002 | 48 | 117 | 1.0 | 5.0 | 0.00 | 0.00 | 0.00 | 68 | 1013.0 |
| 20260501184718 | 48 | 139 | 0.0 | 3.0 | 0.00 | 0.00 | 0.00 | 67 | 1012.9 |
| 20260501184523 | 48 | 0 | 0.0 | 0.0 | 0.00 | 0.00 | 0.00 | 68 | 1013.0 |
| 20260501184217 | 48 | 0 | 0.0 | 0.0 | 0.00 | 0.00 | 0.00 | 68 | 1012.9 |
| 20260501184001 | 48 | 139 | 0.0 | 1.0 | 0.00 | 0.00 | 0.00 | 68 | 1013.0 |
| 20260501183717 | 48 | 139 | 0.0 | 3.0 | 0.00 | 0.00 | 0.00 | 68 | 1012.8 |
| 20260501183502 | 48 | 139 | 1.0 | 4.0 | 0.00 | 0.00 | 0.00 | 68 | 1012.9 |
| 20260501183217 | 48 | 139 | 1.0 | 4.0 | 0.00 | 0.00 | 0.00 | 68 | 1013.0 |
| 20260501183023 | 48 | 139 | 1.0 | 4.0 | 0.00 | 0.00 | 0.00 | 68 | 1012.9 |
| 20260501182717 | 48 | 139 | 2.0 | 4.0 | 0.00 | 0.00 | 0.00 | 67 | 1012.9 |
| 20260501182501 | 48 | 139 | 2.0 | 3.0 | 0.00 | 0.00 | 0.00 | 68 | 1013.0 |
| 20260501182217 | 48 | 139 | 2.0 | 3.0 | 0.00 | 0.00 | 0.00 | 67 | 1013.0 |
| 20260501182002 | 48 | 138 | 2.0 | 5.0 | 0.00 | 0.00 | 0.00 | 67 | 1013.0 |
| 20260501181717 | 48 | 138 | 2.0 | 5.0 | 0.00 | 0.00 | 0.00 | 67 | 1012.9 |
| 20260501181502 | 48 | 137 | 2.0 | 5.0 | 0.00 | 0.00 | 0.00 | 67 | 1012.8 |
| 20260501181217 | 49 | 135 | 2.0 | 5.0 | 0.00 | 0.00 | 0.00 | 67 | 1012.8 |
| 20260501181002 | 49 | 132 | 2.0 | 5.0 | 0.00 | 0.00 | 0.00 | 69 | 1012.5 |
| 20260501180717 | 48 | 124 | 2.0 | 5.0 | 0.00 | 0.00 | 0.00 | 68 | 1012.6 |
| 20260501180522 | 48 | 121 | 2.0 | 6.0 | 0.00 | 0.00 | 0.00 | 69 | 1012.5 |
| 20260501180217 | 48 | 117 | 3.0 | 6.0 | 0.00 | 0.00 | 0.00 | 69 | 1012.5 |
| 20260501180023 | 48 | 116 | 2.0 | 6.0 | 0.00 | 0.00 | 0.00 | 70 | 1012.5 |
| 20260501175717 | 48 | 116 | 2.0 | 6.0 | 0.00 | 0.00 | 0.00 | 70 | 1012.6 |
| 20260501175502 | 47 | 116 | 2.0 | 6.0 | 0.00 | 0.00 | 0.00 | 70 | 1012.6 |
| 20260501175217 | 47 | 115 | 2.0 | 4.0 | 0.00 | 0.00 | 0.00 | 70 | 1012.6 |
| 20260501175001 | 47 | 115 | 2.0 | 4.0 | 0.00 | 0.00 | 0.00 | 71 | 1012.8 |
| 20260501174717 | 47 | 115 | 2.0 | 4.0 | 0.00 | 0.00 | 0.00 | 70 | 1012.7 |
| 20260501174502 | 47 | 115 | 2.0 | 4.0 | 0.00 | 0.00 | 0.00 | 70 | 1012.8 |
| 20260501174217 | 47 | 115 | 2.0 | 4.0 | 0.00 | 0.00 | 0.00 | 70 | 1012.8 |
| 20260501174001 | 47 | 116 | 2.0 | 4.0 | 0.00 | 0.00 | 0.00 | 70 | 1012.8 |
| 20260501173717 | 48 | 117 | 1.0 | 4.0 | 0.00 | 0.00 | 0.00 | 71 | 1012.9 |
| 20260501173501 | 48 | 118 | 1.0 | 4.0 | 0.00 | 0.00 | 0.00 | 72 | 1012.8 |
| 20260501173217 | 48 | 118 | 2.0 | 7.0 | 0.00 | 0.00 | 0.00 | 73 | 1012.8 |
| 20260501173002 | 47 | 116 | 2.0 | 7.0 | 0.00 | 0.00 | 0.00 | 72 | 1012.7 |
| 20260501172717 | 47 | 112 | 2.0 | 7.0 | 0.00 | 0.00 | 0.00 | 73 | 1012.6 |
| 20260501172501 | 47 | 109 | 2.0 | 7.0 | 0.00 | 0.00 | 0.00 | 73 | 1012.6 |
| 20260501172216 | 47 | 102 | 2.0 | 6.0 | 0.00 | 0.00 | 0.00 | 74 | 1012.7 |
| 20260501172002 | 47 | 103 | 2.0 | 6.0 | 0.00 | 0.00 | 0.00 | 73 | 1012.8 |
| 20260501171717 | 47 | 105 | 2.0 | 6.0 | 0.00 | 0.00 | 0.00 | 74 | 1012.8 |
| 20260501171502 | 47 | 105 | 2.0 | 6.0 | 0.00 | 0.00 | 0.00 | 74 | 1012.8 |
| 20260501171216 | 47 | 104 | 2.0 | 6.0 | 0.00 | 0.00 | 0.00 | 74 | 1012.9 |